{"data":{"norad_id":46469,"intl_designator":"2020-066A","name":"HAIYANG-2C","alt_names":[],"object_type":"PAYLOAD","status":"ACTIVE","operator":null,"country":"PRC","launch_date":"2020-09-21","launch_site_code":"JSC","launch_vehicle":null,"mission":null,"orbit_class":"UNKNOWN","rcs_meters":null,"size_class":null,"mass_kg":null,"dimensions":null,"purposes":[],"wikipedia_slug":null,"has_3d_model":false,"image_url":null,"decayed_at":null,"tle_current":{"epoch":"2026-09-20T05:36:07.458624Z","epoch_age_seconds":96690,"freshness":"FRESH","line1":"1 46469U 20066A   26263.23341966  .00000041  00000+0  11123-3 0  9991","line2":"2 46469  65.9997 338.6428 0004925 248.7980 111.2562 13.83375283302644","mean_motion":13.83375283,"eccentricity":0.0004925,"inclination_deg":65.9997,"raan_deg":338.6428,"arg_perigee_deg":248.798,"mean_anomaly_deg":111.2562,"bstar":0.00011123,"rev_number":30264,"period_min":104.09322890873,"perigee_km":948.32931864046,"apogee_km":955.549443876,"semimajor_km":7330.0763812582,"source":"CELESTRAK","updated_at":"2026-09-20T09:00:14.758478Z"}}}